GEFSNE_prec_meanprecacc_006.txt.gz
Total_Precipitation_Accumulation
0.00 0.00 0.00 0.00 0.00 0.00 0.00 0.00 0.00 0.00 0.00 0.00 0.00 0.00 0.00 0.00 0.00 0.00 0.00 0.00 0.00 0.00 0.00 0.00 0.00 0.00 0.01 0.01 0.01 0.02 0.02 0.02 0.01 0.02 0.02 0.02 0.03 0.04
0.00 0.00 0.00 0.00 0.00 0.00 0.00 0.00 0.00 0.00 0.00 0.00 0.00 0.00 0.00 0.00 0.00 0.00 0.00 0.00 0.00 0.00 0.00 0.01 0.01 0.01 0.01 0.02 0.02 0.01 0.01 0.02 0.02 0.03 0.03 0.03 0.03 0.04
0.00 0.00 0.00 0.00 0.00 0.00 0.00 0.00 0.00 0.00 0.00 0.00 0.00 0.00 0.00 0.00 0.00 0.00 0.00 0.00 0.00 0.00 0.00 0.01 0.01 0.01 0.01 0.01 0.01 0.01 0.02 0.02 0.03 0.04 0.04 0.05 0.05 0.05
0.00 0.00 0.00 0.00 0.00 0.00 0.00 0.00 0.00 0.00 0.00 0.00 0.00 0.00 0.00 0.00 0.00 0.00 0.00 0.00 0.00 0.00 0.00 0.00 0.01 0.00 0.01 0.01 0.02 0.03 0.03 0.04 0.05 0.05 0.06 0.06 0.06 0.06
0.00 0.00 0.00 0.00 0.00 0.00 0.00 0.00 0.00 0.00 0.00 0.00 0.00 0.00 0.00 0.00 0.00 0.00 0.00 0.00 0.00 0.00 0.00 0.00 0.00 0.01 0.02 0.03 0.03 0.03 0.03 0.03 0.03 0.03 0.04 0.05 0.05 0.06
0.00 0.00 0.00 0.00 0.00 0.00 0.00 0.00 0.00 0.00 0.00 0.01 0.02 0.02 0.02 0.00 0.00 0.00 0.00 0.00 0.00 0.00 0.00 0.00 0.01 0.02 0.01 0.01 0.01 0.01 0.01 0.02 0.04 0.05 0.06 0.07 0.06 0.06
0.00 0.00 0.00 0.00 0.00 0.00 0.00 0.00 0.00 0.01 0.03 0.06 0.07 0.04 0.01 0.00 0.00 0.00 0.00 0.00 0.00 0.00 0.01 0.00 0.00 0.00 0.00 0.00 0.00 0.02 0.04 0.06 0.07 0.07 0.07 0.07 0.06 0.05
0.00 0.00 0.00 0.00 0.00 0.00 0.01 0.01 0.02 0.05 0.08 0.10 0.05 0.01 0.00 0.00 0.01 0.01 0.02 0.03 0.02 0.00 0.01 0.00 0.00 0.00 0.00 0.01 0.01 0.03 0.04 0.04 0.03 0.03 0.03 0.03 0.03 0.02
0.00 0.00 0.00 0.00 0.00 0.00 0.00 0.02 0.03 0.06 0.07 0.04 0.01 0.00 0.01 0.01 0.04 0.05 0.03 0.03 0.02 0.00 0.01 0.01 0.00 0.01 0.01 0.00 0.01 0.01 0.01 0.02 0.02 0.03 0.03 0.03 0.02 0.01
0.00 0.00 0.00 0.00 0.00 0.01 0.01 0.02 0.03 0.03 0.01 0.00 0.01 0.01 0.02 0.02 0.02 0.02 0.02 0.02 0.01 0.00 0.01 0.01 0.00 0.00 0.00 0.00 0.00 0.00 0.01 0.04 0.06 0.08 0.07 0.06 0.04 0.02
0.00 0.00 0.00 0.01 0.01 0.03 0.05 0.08 0.04 0.00 0.00 0.01 0.02 0.01 0.01 0.01 0.01 0.04 0.06 0.06 0.03 0.00 0.00 0.00 0.00 0.00 0.00 0.00 0.00 0.00 0.02 0.03 0.03 0.03 0.03 0.03 0.02 0.01
0.00 0.00 0.01 0.01 0.02 0.06 0.07 0.05 0.01 0.00 0.01 0.00 0.00 0.00 0.00 0.00 0.01 0.04 0.09 0.11 0.07 0.03 0.00 0.01 0.02 0.02 0.03 0.00 0.00 0.00 0.01 0.01 0.02 0.02 0.03 0.03 0.03 0.02
0.00 0.00 0.00 0.02 0.06 0.06 0.02 0.00 0.01 0.01 0.00 0.00 0.00 0.00 0.00 0.00 0.00 0.01 0.04 0.12 0.14 0.08 0.01 0.04 0.07 0.03 0.04 0.02 0.00 0.00 0.00 0.00 0.01 0.03 0.05 0.06 0.06 0.04
0.01 0.01 0.02 0.05 0.04 0.01 0.00 0.00 0.01 0.01 0.00 0.00 0.00 0.00 0.01 0.01 0.00 0.01 0.01 0.03 0.07 0.09 0.05 0.09 0.13 0.08 0.07 0.05 0.01 0.00 0.00 0.01 0.04 0.08 0.12 0.14 0.12 0.10
0.02 0.03 0.04 0.03 0.01 0.00 0.00 0.00 0.00 0.00 0.01 0.02 0.02 0.01 0.01 0.01 0.01 0.01 0.01 0.01 0.01 0.01 0.03 0.06 0.09 0.07 0.06 0.04 0.02 0.00 0.01 0.01 0.05 0.11 0.11 0.10 0.09 0.09
0.02 0.03 0.01 0.00 0.00 0.00 0.00 0.00 0.00 0.00 0.03 0.04 0.03 0.01 0.01 0.01 0.02 0.03 0.03 0.02 0.02 0.01 0.00 0.01 0.04 0.06 0.04 0.02 0.01 0.02 0.04 0.06 0.07 0.11 0.11 0.10 0.10 0.09
0.01 0.00 0.00 0.00 0.00 0.00 0.00 0.00 0.00 0.01 0.02 0.02 0.02 0.02 0.01 0.01 0.01 0.02 0.04 0.04 0.04 0.03 0.01 0.00 0.00 0.01 0.01 0.01 0.02 0.04 0.06 0.09 0.13 0.15 0.14 0.15 0.16 0.17
0.01 0.00 0.00 0.00 0.00 0.00 0.00 0.00 0.00 0.01 0.02 0.02 0.02 0.02 0.03 0.03 0.02 0.01 0.03 0.05 0.05 0.04 0.03 0.02 0.02 0.01 0.00 0.01 0.05 0.10 0.10 0.14 0.19 0.19 0.19 0.17 0.19 0.19
0.00 0.00 0.00 0.00 0.00 0.00 0.01 0.01 0.01 0.01 0.01 0.02 0.02 0.03 0.03 0.03 0.03 0.02 0.03 0.03 0.03 0.03 0.03 0.04 0.03 0.03 0.02 0.03 0.03 0.12 0.17 0.17 0.18 0.18 0.18 0.16 0.20 0.23
0.00 0.00 0.00 0.00 0.00 0.01 0.02 0.02 0.02 0.01 0.01 0.02 0.02 0.03 0.03 0.03 0.03 0.03 0.04 0.04 0.04 0.03 0.02 0.02 0.03 0.04 0.06 0.07 0.07 0.14 0.18 0.16 0.13 0.15 0.18 0.16 0.18 0.20
0.00 0.00 0.00 0.00 0.01 0.02 0.02 0.02 0.02 0.02 0.02 0.02 0.03 0.03 0.04 0.04 0.03 0.03 0.04 0.04 0.03 0.03 0.02 0.02 0.05 0.06 0.05 0.03 0.05 0.12 0.17 0.16 0.11 0.10 0.11 0.12 0.13 0.12
0.00 0.00 0.00 0.01 0.02 0.02 0.03 0.02 0.02 0.01 0.01 0.02 0.02 0.03 0.03 0.04 0.04 0.04 0.04 0.03 0.03 0.03 0.03 0.01 0.02 0.03 0.03 0.03 0.05 0.07 0.10 0.08 0.05 0.03 0.05 0.07 0.10 0.18
0.00 0.01 0.01 0.01 0.02 0.03 0.02 0.02 0.01 0.01 0.02 0.03 0.03 0.03 0.03 0.04 0.04 0.04 0.04 0.03 0.02 0.01 0.01 0.01 0.01 0.01 0.02 0.03 0.03 0.04 0.04 0.04 0.02 0.03 0.07 0.07 0.08 0.11

GEFSNE_prec_meanprecacc_012.txt.gz
Total_Precipitation_Accumulation
0.00 0.00 0.00 0.00 0.00 0.00 0.00 0.00 0.00 0.00 0.00 0.00 0.00 0.00 0.00 0.00 0.00 0.00 0.00 0.00 0.00 0.00 0.01 0.01 0.01 0.01 0.01 0.02 0.03 0.04 0.05 0.05 0.06 0.06 0.06 0.06 0.07 0.08
0.00 0.00 0.00 0.00 0.00 0.00 0.00 0.00 0.00 0.00 0.00 0.00 0.00 0.00 0.00 0.00 0.00 0.00 0.00 0.00 0.00 0.01 0.01 0.01 0.01 0.02 0.02 0.03 0.04 0.04 0.05 0.06 0.07 0.07 0.08 0.08 0.09 0.09
0.00 0.00 0.00 0.00 0.00 0.00 0.00 0.00 0.00 0.00 0.00 0.00 0.00 0.00 0.00 0.00 0.00 0.00 0.00 0.00 0.00 0.00 0.01 0.01 0.02 0.02 0.03 0.03 0.03 0.04 0.04 0.05 0.07 0.08 0.10 0.11 0.11 0.11
0.00 0.00 0.00 0.00 0.00 0.00 0.00 0.00 0.00 0.00 0.00 0.00 0.00 0.00 0.00 0.00 0.00 0.00 0.00 0.00 0.00 0.00 0.00 0.01 0.02 0.02 0.02 0.03 0.05 0.06 0.08 0.10 0.11 0.11 0.11 0.12 0.12 0.12
0.00 0.00 0.00 0.00 0.00 0.00 0.00 0.00 0.00 0.00 0.00 0.01 0.00 0.00 0.00 0.00 0.00 0.00 0.00 0.00 0.00 0.00 0.00 0.00 0.01 0.03 0.04 0.06 0.06 0.06 0.06 0.06 0.05 0.05 0.06 0.07 0.08 0.09
0.00 0.00 0.00 0.00 0.00 0.00 0.00 0.00 0.00 0.00 0.00 0.01 0.03 0.03 0.03 0.01 0.01 0.00 0.00 0.00 0.00 0.00 0.00 0.01 0.02 0.02 0.02 0.02 0.02 0.02 0.03 0.04 0.05 0.07 0.08 0.09 0.09 0.09
0.00 0.00 0.00 0.00 0.00 0.00 0.01 0.01 0.01 0.01 0.04 0.09 0.10 0.07 0.02 0.01 0.00 0.00 0.01 0.01 0.00 0.00 0.01 0.00 0.00 0.00 0.00 0.00 0.01 0.02 0.04 0.07 0.08 0.09 0.10 0.11 0.10 0.10
0.00 0.00 0.00 0.00 0.00 0.00 0.01 0.02 0.04 0.09 0.14 0.17 0.11 0.03 0.00 0.00 0.01 0.02 0.04 0.05 0.03 0.00 0.01 0.00 0.00 0.00 0.00 0.01 0.01 0.03 0.05 0.05 0.05 0.05 0.06 0.06 0.06 0.05
0.00 0.00 0.00 0.00 0.00 0.00 0.00 0.03 0.06 0.10 0.12 0.08 0.02 0.00 0.01 0.02 0.05 0.07 0.05 0.05 0.03 0.00 0.01 0.02 0.00 0.01 0.01 0.00 0.01 0.01 0.02 0.02 0.03 0.04 0.06 0.06 0.06 0.05
0.00 0.00 0.00 0.00 0.00 0.02 0.04 0.08 0.06 0.05 0.02 0.00 0.01 0.01 0.02 0.02 0.03 0.05 0.05 0.04 0.02 0.00 0.01 0.02 0.00 0.00 0.00 0.00 0.00 0.00 0.01 0.04 0.07 0.10 0.10 0.10 0.09 0.08
0.00 0.00 0.01 0.01 0.02 0.06 0.09 0.12 0.05 0.00 0.00 0.01 0.02 0.02 0.01 0.01 0.01 0.09 0.12 0.09 0.05 0.01 0.00 0.00 0.00 0.00 0.00 0.00 0.00 0.00 0.02 0.03 0.04 0.05 0.05 0.06 0.06 0.06
0.00 0.00 0.01 0.02 0.05 0.09 0.09 0.05 0.01 0.00 0.01 0.01 0.00 0.00 0.00 0.00 0.01 0.07 0.16 0.21 0.12 0.05 0.00 0.02 0.03 0.04 0.07 0.01 0.00 0.00 0.01 0.01 0.02 0.03 0.04 0.05 0.05 0.06
0.00 0.00 0.00 0.04 0.08 0.08 0.03 0.00 0.01 0.03 0.01 0.00 0.00 0.00 0.00 0.00 0.00 0.01 0.07 0.22 0.27 0.15 0.02 0.10 0.14 0.06 0.08 0.04 0.00 0.00 0.00 0.00 0.01 0.03 0.06 0.08 0.11 0.15
0.01 0.01 0.02 0.06 0.05 0.02 0.00 0.01 0.02 0.02 0.00 0.00 0.00 0.00 0.01 0.01 0.00 0.01 0.01 0.05 0.14 0.19 0.11 0.17 0.24 0.15 0.14 0.09 0.02 0.00 0.00 0.01 0.04 0.10 0.15 0.19 0.21 0.23
0.02 0.03 0.05 0.03 0.01 0.00 0.00 0.01 0.01 0.00 0.01 0.03 0.02 0.01 0.01 0.01 0.01 0.02 0.01 0.01 0.01 0.03 0.05 0.10 0.18 0.16 0.14 0.12 0.06 0.01 0.02 0.02 0.05 0.14 0.17 0.18 0.20 0.23
0.02 0.03 0.01 0.00 0.00 0.00 0.00 0.00 0.00 0.00 0.04 0.05 0.03 0.01 0.01 0.01 0.02 0.03 0.04 0.03 0.03 0.01 0.00 0.02 0.07 0.13 0.11 0.05 0.08 0.08 0.10 0.14 0.12 0.17 0.20 0.20 0.21 0.24
0.02 0.00 0.00 0.00 0.00 0.00 0.00 0.00 0.00 0.01 0.02 0.02 0.03 0.03 0.02 0.01 0.01 0.02 0.05 0.06 0.06 0.04 0.02 0.00 0.01 0.02 0.04 0.04 0.07 0.09 0.12 0.18 0.26 0.29 0.28 0.29 0.30 0.31
0.01 0.00 0.00 0.00 0.00 0.00 0.00 0.01 0.01 0.01 0.02 0.03 0.03 0.04 0.04 0.04 0.03 0.02 0.03 0.07 0.08 0.06 0.05 0.04 0.03 0.01 0.00 0.01 0.10 0.21 0.22 0.29 0.35 0.36 0.37 0.37 0.36 0.35
0.00 0.00 0.00 0.00 0.00 0.01 0.01 0.02 0.02 0.01 0.02 0.03 0.04 0.06 0.06 0.04 0.04 0.04 0.04 0.05 0.05 0.05 0.05 0.06 0.06 0.06 0.05 0.05 0.04 0.22 0.37 0.34 0.33 0.36 0.40 0.44 0.55 0.53
0.00 0.00 0.00 0.00 0.01 0.02 0.03 0.03 0.03 0.02 0.02 0.03 0.04 0.06 0.06 0.06 0.05 0.05 0.06 0.07 0.07 0.05 0.03 0.04 0.06 0.09 0.15 0.16 0.15 0.23 0.30 0.33 0.32 0.42 0.45 0.40 0.44 0.43
0.00 0.00 0.00 0.01 0.02 0.03 0.03 0.03 0.03 0.03 0.03 0.04 0.05 0.06 0.07 0.07 0.05 0.04 0.06 0.06 0.06 0.05 0.04 0.05 0.09 0.12 0.12 0.08 0.09 0.17 0.24 0.27 0.31 0.36 0.32 0.23 0.21 0.22
0.00 0.00 0.01 0.01 0.03 0.04 0.04 0.03 0.03 0.03 0.03 0.04 0.05 0.06 0.07 0.07 0.07 0.06 0.06 0.06 0.06 0.06 0.05 0.03 0.04 0.06 0.05 0.05 0.07 0.10 0.13 0.12 0.11 0.13 0.22 0.26 0.30 0.52
0.01 0.01 0.01 0.02 0.04 0.04 0.04 0.03 0.03 0.03 0.04 0.06 0.07 0.06 0.07 0.07 0.06 0.07 0.07 0.07 0.05 0.03 0.03 0.02 0.02 0.02 0.04 0.04 0.05 0.06 0.06 0.06 0.05 0.09 0.23 0.31 0.37 0.49

GEFSNE_prec_meanprecacc_018.txt.gz
Total_Precipitation_Accumulation
0.00 0.00 0.00 0.00 0.00 0.00 0.00 0.00 0.00 0.00 0.00 0.00 0.00 0.00 0.00 0.00 0.00 0.00 0.00 0.00 0.00 0.01 0.01 0.02 0.01 0.02 0.02 0.03 0.05 0.06 0.07 0.08 0.08 0.09 0.09 0.10 0.10 0.11
0.00 0.00 0.00 0.00 0.00 0.00 0.00 0.00 0.00 0.00 0.00 0.00 0.00 0.00 0.00 0.00 0.00 0.00 0.00 0.00 0.00 0.01 0.01 0.02 0.02 0.02 0.03 0.04 0.05 0.06 0.07 0.09 0.10 0.11 0.13 0.14 0.14 0.15
0.00 0.00 0.00 0.00 0.00 0.00 0.00 0.00 0.00 0.00 0.00 0.00 0.00 0.00 0.00 0.00 0.00 0.00 0.00 0.00 0.00 0.01 0.01 0.01 0.02 0.03 0.03 0.04 0.05 0.06 0.07 0.09 0.11 0.13 0.15 0.17 0.18 0.18
0.00 0.00 0.00 0.00 0.00 0.00 0.00 0.00 0.00 0.00 0.00 0.00 0.00 0.00 0.00 0.00 0.00 0.00 0.00 0.01 0.01 0.00 0.00 0.01 0.02 0.03 0.03 0.04 0.06 0.09 0.11 0.13 0.15 0.16 0.17 0.18 0.18 0.19
0.00 0.00 0.00 0.00 0.00 0.00 0.00 0.00 0.00 0.00 0.00 0.01 0.00 0.00 0.00 0.00 0.01 0.00 0.00 0.00 0.00 0.00 0.00 0.00 0.01 0.03 0.05 0.07 0.08 0.08 0.08 0.08 0.08 0.08 0.09 0.11 0.12 0.13
0.00 0.00 0.00 0.00 0.00 0.00 0.00 0.00 0.01 0.00 0.00 0.02 0.04 0.04 0.03 0.01 0.01 0.00 0.00 0.00 0.00 0.00 0.00 0.01 0.02 0.03 0.03 0.02 0.02 0.03 0.03 0.05 0.06 0.08 0.10 0.11 0.11 0.11
0.00 0.00 0.00 0.00 0.00 0.00 0.01 0.01 0.01 0.02 0.06 0.12 0.13 0.08 0.03 0.01 0.00 0.00 0.01 0.01 0.00 0.00 0.01 0.00 0.00 0.00 0.00 0.00 0.01 0.02 0.04 0.07 0.09 0.11 0.12 0.14 0.13 0.13
0.00 0.00 0.00 0.00 0.00 0.00 0.01 0.02 0.06 0.11 0.18 0.21 0.12 0.03 0.00 0.00 0.01 0.03 0.05 0.06 0.03 0.00 0.01 0.00 0.00 0.00 0.00 0.01 0.01 0.03 0.05 0.06 0.07 0.07 0.08 0.09 0.09 0.09
0.00 0.00 0.00 0.00 0.00 0.00 0.00 0.04 0.08 0.12 0.14 0.09 0.02 0.00 0.01 0.02 0.06 0.09 0.06 0.06 0.04 0.01 0.02 0.02 0.00 0.01 0.01 0.00 0.01 0.01 0.02 0.03 0.05 0.06 0.08 0.09 0.08 0.08
0.00 0.00 0.00 0.00 0.00 0.02 0.05 0.10 0.08 0.05 0.02 0.00 0.01 0.02 0.02 0.03 0.04 0.06 0.06 0.06 0.02 0.00 0.01 0.02 0.00 0.00 0.00 0.00 0.00 0.00 0.02 0.05 0.08 0.11 0.12 0.12 0.12 0.11
0.00 0.00 0.01 0.01 0.02 0.07 0.12 0.14 0.05 0.01 0.00 0.01 0.03 0.02 0.01 0.01 0.02 0.10 0.14 0.12 0.06 0.01 0.00 0.00 0.00 0.00 0.00 0.00 0.00 0.00 0.02 0.03 0.04 0.05 0.07 0.07 0.07 0.08
0.00 0.00 0.01 0.02 0.05 0.11 0.11 0.06 0.01 0.00 0.02 0.01 0.00 0.00 0.00 0.00 0.01 0.07 0.19 0.27 0.16 0.06 0.00 0.03 0.05 0.06 0.10 0.01 0.00 0.00 0.01 0.01 0.02 0.03 0.04 0.06 0.07 0.08
0.00 0.00 0.01 0.04 0.09 0.09 0.04 0.00 0.01 0.04 0.02 0.00 0.00 0.00 0.00 0.00 0.00 0.01 0.08 0.29 0.36 0.20 0.03 0.15 0.19 0.09 0.13 0.06 0.00 0.00 0.00 0.00 0.02 0.03 0.06 0.09 0.13 0.20
0.01 0.01 0.02 0.07 0.06 0.02 0.00 0.01 0.03 0.02 0.00 0.00 0.00 0.00 0.01 0.01 0.00 0.01 0.02 0.06 0.17 0.25 0.14 0.23 0.32 0.20 0.20 0.12 0.02 0.00 0.00 0.01 0.05 0.11 0.16 0.20 0.23 0.27
0.02 0.04 0.05 0.03 0.01 0.00 0.00 0.01 0.01 0.00 0.01 0.03 0.02 0.01 0.01 0.01 0.01 0.02 0.01 0.01 0.01 0.03 0.06 0.11 0.23 0.22 0.22 0.19 0.10 0.03 0.04 0.03 0.06 0.16 0.20 0.22 0.25 0.30
0.03 0.03 0.02 0.00 0.00 0.00 0.00 0.00 0.00 0.00 0.04 0.06 0.04 0.01 0.01 0.01 0.02 0.03 0.04 0.03 0.04 0.01 0.00 0.02 0.09 0.19 0.17 0.09 0.13 0.12 0.13 0.18 0.15 0.22 0.26 0.25 0.30 0.37
0.02 0.01 0.00 0.00 0.00 0.00 0.00 0.00 0.00 0.01 0.02 0.03 0.04 0.03 0.02 0.02 0.02 0.02 0.05 0.07 0.07 0.05 0.02 0.00 0.01 0.04 0.06 0.06 0.08 0.09 0.13 0.21 0.31 0.39 0.41 0.38 0.37 0.44
0.01 0.00 0.00 0.00 0.00 0.00 0.00 0.01 0.01 0.01 0.02 0.03 0.04 0.05 0.06 0.05 0.04 0.02 0.04 0.08 0.09 0.07 0.06 0.04 0.03 0.02 0.01 0.01 0.10 0.22 0.24 0.32 0.41 0.45 0.51 0.53 0.48 0.45
0.00 0.00 0.00 0.00 0.00 0.01 0.02 0.03 0.02 0.01 0.02 0.04 0.05 0.07 0.08 0.06 0.05 0.04 0.04 0.06 0.06 0.05 0.06 0.07 0.08 0.09 0.07 0.06 0.05 0.22 0.42 0.41 0.39 0.45 0.55 0.66 0.80 0.70
0.00 0.00 0.00 0.01 0.01 0.02 0.03 0.04 0.03 0.02 0.02 0.04 0.05 0.08 0.09 0.08 0.07 0.06 0.07 0.09 0.09 0.06 0.04 0.04 0.07 0.13 0.21 0.22 0.17 0.23 0.32 0.44 0.45 0.54 0.57 0.50 0.56 0.55
0.00 0.00 0.00 0.01 0.03 0.04 0.04 0.04 0.04 0.05 0.04 0.06 0.07 0.09 0.10 0.11 0.08 0.06 0.07 0.07 0.08 0.07 0.06 0.05 0.10 0.13 0.14 0.09 0.10 0.17 0.24 0.31 0.43 0.54 0.46 0.30 0.27 0.32
0.00 0.00 0.01 0.01 0.04 0.05 0.05 0.04 0.04 0.04 0.05 0.07 0.07 0.09 0.10 0.11 0.11 0.09 0.09 0.09 0.07 0.08 0.07 0.04 0.04 0.06 0.05 0.05 0.08 0.11 0.14 0.13 0.13 0.17 0.31 0.47 0.62 0.89
0.01 0.01 0.02 0.03 0.05 0.05 0.05 0.04 0.04 0.04 0.06 0.09 0.10 0.09 0.10 0.10 0.09 0.10 0.10 0.10 0.08 0.05 0.04 0.03 0.02 0.02 0.04 0.04 0.05 0.06 0.07 0.07 0.06 0.10 0.28 0.44 0.62 0.79

GEFSNE_prec_meanprecacc_024.txt.gz
Total_Precipitation_Accumulation
0.00 0.00 0.00 0.00 0.00 0.00 0.00 0.00 0.00 0.00 0.00 0.00 0.00 0.00 0.00 0.00 0.00 0.00 0.00 0.00 0.00 0.01 0.01 0.02 0.02 0.02 0.03 0.04 0.06 0.07 0.08 0.09 0.10 0.11 0.11 0.12 0.12 0.14
0.00 0.00 0.00 0.00 0.00 0.00 0.00 0.00 0.00 0.00 0.00 0.00 0.00 0.00 0.00 0.00 0.00 0.00 0.00 0.00 0.00 0.01 0.01 0.02 0.02 0.03 0.04 0.05 0.06 0.07 0.09 0.10 0.12 0.14 0.16 0.17 0.18 0.19
0.00 0.00 0.00 0.00 0.00 0.00 0.00 0.00 0.00 0.00 0.00 0.00 0.00 0.00 0.00 0.00 0.00 0.00 0.00 0.00 0.00 0.01 0.01 0.01 0.02 0.03 0.04 0.05 0.06 0.07 0.08 0.10 0.12 0.15 0.18 0.21 0.22 0.23
0.00 0.00 0.00 0.00 0.00 0.00 0.00 0.00 0.00 0.00 0.00 0.00 0.00 0.00 0.00 0.00 0.00 0.00 0.00 0.01 0.01 0.00 0.00 0.01 0.02 0.03 0.03 0.05 0.07 0.09 0.12 0.14 0.17 0.18 0.19 0.21 0.22 0.23
0.00 0.00 0.00 0.00 0.00 0.00 0.00 0.00 0.00 0.00 0.00 0.01 0.00 0.00 0.00 0.00 0.01 0.00 0.00 0.00 0.00 0.00 0.00 0.00 0.01 0.03 0.05 0.07 0.08 0.08 0.09 0.09 0.09 0.09 0.11 0.13 0.14 0.16
0.00 0.00 0.00 0.00 0.00 0.00 0.00 0.00 0.01 0.00 0.01 0.02 0.04 0.04 0.04 0.01 0.01 0.00 0.00 0.00 0.00 0.00 0.00 0.01 0.02 0.03 0.03 0.02 0.02 0.03 0.03 0.05 0.07 0.09 0.11 0.12 0.13 0.13
0.00 0.00 0.00 0.00 0.00 0.00 0.01 0.01 0.01 0.02 0.06 0.12 0.14 0.09 0.03 0.01 0.01 0.00 0.01 0.01 0.00 0.00 0.01 0.00 0.00 0.00 0.00 0.00 0.01 0.02 0.04 0.07 0.10 0.12 0.14 0.15 0.15 0.15
0.00 0.00 0.00 0.00 0.00 0.00 0.01 0.02 0.06 0.12 0.19 0.23 0.15 0.05 0.01 0.01 0.01 0.03 0.05 0.07 0.04 0.00 0.01 0.00 0.00 0.00 0.00 0.01 0.01 0.03 0.05 0.06 0.07 0.08 0.09 0.11 0.11 0.11
0.00 0.00 0.00 0.00 0.00 0.00 0.00 0.04 0.08 0.13 0.15 0.11 0.04 0.01 0.01 0.02 0.06 0.10 0.08 0.08 0.05 0.01 0.02 0.02 0.00 0.01 0.01 0.00 0.01 0.01 0.02 0.03 0.05 0.07 0.09 0.10 0.10 0.10
0.00 0.00 0.00 0.00 0.00 0.02 0.06 0.11 0.09 0.06 0.02 0.01 0.01 0.02 0.02 0.03 0.05 0.08 0.08 0.07 0.02 0.00 0.01 0.02 0.00 0.00 0.00 0.00 0.00 0.00 0.02 0.05 0.08 0.12 0.13 0.13 0.13 0.13
0.00 0.00 0.01 0.01 0.02 0.07 0.13 0.15 0.06 0.01 0.00 0.01 0.03 0.02 0.02 0.01 0.02 0.10 0.14 0.13 0.07 0.01 0.00 0.00 0.00 0.00 0.00 0.00 0.00 0.00 0.02 0.03 0.04 0.06 0.07 0.08 0.09 0.10
0.00 0.00 0.01 0.02 0.05 0.11 0.12 0.07 0.01 0.00 0.02 0.01 0.00 0.00 0.00 0.00 0.01 0.07 0.20 0.31 0.20 0.08 0.00 0.04 0.05 0.07 0.12 0.02 0.00 0.00 0.01 0.01 0.02 0.03 0.04 0.06 0.08 0.11
0.00 0.00 0.01 0.04 0.09 0.10 0.05 0.01 0.01 0.04 0.02 0.00 0.00 0.00 0.00 0.00 0.00 0.01 0.08 0.33 0.43 0.23 0.03 0.17 0.24 0.11 0.16 0.07 0.00 0.00 0.00 0.00 0.02 0.03 0.06 0.09 0.14 0.24
0.01 0.01 0.02 0.07 0.07 0.03 0.01 0.01 0.03 0.02 0.00 0.00 0.00 0.00 0.01 0.01 0.00 0.01 0.02 0.06 0.19 0.27 0.14 0.26 0.41 0.25 0.26 0.16 0.03 0.00 0.00 0.01 0.05 0.11 0.16 0.20 0.24 0.29
0.02 0.04 0.05 0.04 0.01 0.00 0.00 0.01 0.01 0.00 0.01 0.03 0.02 0.01 0.01 0.01 0.01 0.02 0.01 0.01 0.02 0.03 0.06 0.12 0.27 0.28 0.29 0.25 0.12 0.03 0.04 0.03 0.06 0.16 0.21 0.23 0.26 0.32
0.03 0.03 0.02 0.00 0.00 0.00 0.00 0.00 0.00 0.00 0.04 0.06 0.04 0.01 0.01 0.01 0.02 0.03 0.05 0.04 0.05 0.01 0.00 0.02 0.10 0.23 0.24 0.13 0.16 0.13 0.13 0.18 0.15 0.23 0.27 0.26 0.30 0.39
0.03 0.01 0.00 0.00 0.00 0.00 0.00 0.00 0.00 0.01 0.02 0.03 0.04 0.04 0.02 0.02 0.02 0.02 0.06 0.08 0.09 0.06 0.02 0.00 0.01 0.04 0.08 0.09 0.11 0.10 0.13 0.21 0.31 0.40 0.44 0.41 0.38 0.45
0.01 0.00 0.00 0.00 0.00 0.00 0.00 0.01 0.01 0.01 0.02 0.04 0.05 0.06 0.07 0.06 0.04 0.02 0.04 0.09 0.10 0.07 0.06 0.04 0.04 0.03 0.01 0.02 0.10 0.23 0.25 0.33 0.41 0.46 0.54 0.59 0.51 0.46
0.00 0.00 0.00 0.00 0.00 0.01 0.02 0.03 0.02 0.01 0.03 0.05 0.07 0.09 0.10 0.07 0.06 0.05 0.05 0.07 0.07 0.06 0.06 0.07 0.10 0.15 0.13 0.08 0.05 0.22 0.43 0.43 0.41 0.46 0.56 0.71 0.86 0.73
0.00 0.00 0.00 0.01 0.01 0.02 0.03 0.04 0.04 0.03 0.03 0.05 0.07 0.09 0.12 0.11 0.08 0.08 0.08 0.11 0.11 0.08 0.05 0.04 0.09 0.20 0.32 0.29 0.21 0.24 0.32 0.47 0.53 0.61 0.59 0.51 0.57 0.56
0.00 0.00 0.00 0.01 0.03 0.04 0.05 0.05 0.05 0.05 0.06 0.08 0.09 0.11 0.14 0.15 0.11 0.08 0.09 0.08 0.10 0.10 0.09 0.07 0.10 0.15 0.17 0.12 0.12 0.18 0.24 0.32 0.48 0.65 0.58 0.39 0.32 0.35
0.00 0.00 0.01 0.01 0.04 0.05 0.06 0.05 0.05 0.05 0.06 0.09 0.10 0.12 0.13 0.16 0.15 0.12 0.11 0.11 0.10 0.12 0.10 0.05 0.05 0.06 0.06 0.08 0.11 0.12 0.15 0.13 0.13 0.19 0.40 0.64 0.84 1.11
0.01 0.01 0.02 0.03 0.05 0.06 0.06 0.05 0.05 0.05 0.08 0.12 0.13 0.12 0.13 0.13 0.12 0.12 0.13 0.13 0.13 0.09 0.06 0.04 0.02 0.03 0.04 0.06 0.08 0.08 0.08 0.07 0.07 0.11 0.29 0.48 0.71 0.93